Simultaneous Nadir Overpasses (SNOs) Predictions

Prediction of SNOs between GOES-14 and NOAA-20 Satellite Orbit:

Table of predicted SNOs for the next 14.0 days since TLE Epoch: 11/2/2019
Index Date Time (GOES-14) GOES-14 Lat,Lon NOAA-20 Lat,Lon Distance(km) Time Diff (sec)
1 11/03/2019 08:38:39 0.13,-104.24 0.95,-108.03 431.15 80
2 11/04/2019 08:17:13 0.15,-104.23 -0.01,-103.48 84.35 80
3 11/06/2019 20:20:25 -0.13,-104.11 -0.17,-104.25 16.82 80
4 11/09/2019 08:26:09 0.11,-104.24 0.31,-105.00 86.84 80
5 11/10/2019 08:04:44 0.13,-104.23 -0.70,-100.47 429.07 80
6 11/11/2019 20:26:41 -0.11,-104.10 -0.48,-105.77 190.65 80
7 11/12/2019 20:10:36 -0.12,-104.11 0.54,-101.24 326.80 80
8 11/14/2019 08:32:24 0.09,-104.26 0.62,-106.52 257.97 80
9 11/15/2019 08:11:00 0.11,-104.25 -0.39,-101.99 257.60 80




NCC Satellite Simultaneous Nadir Overpasses (SNOs) Prediction Service
